Location: Izdebno
(52.6670°N, 16.2170°E)
Time: 20:57:00
(UTC+02:00)

SR - Pass Details

Date: 27 February 2024
Orbit: 577 x 862 km, 66.7° (Epoch: 21 April)

Event Time Altitude Azimuth Distance (km) Brightness Sun altitude
Rises 19:27:42 0° 304° (WNW) 3,370 ? -18.7°
Reaches altitude 10° 19:31:00 10° 322° (NW) 2,390 ? -19.1°
Maximum altitude 19:34:46 19° 6° (N) 1,808 ? -19.7°
Enters shadow 19:37:17 14° 39° (NE) 2,029 ? -20.1°
